Date String (YYYY-MM-DD hh:mm:ss) UTC,Instrument flags,Ambient pressure (hPa),Sample flow (lpm),Bypass flow (lpm),Sample temperature (°C),Ambient temperature (°C),ASC tube jacket temperature (°C),LED temperature (°C),Box temperature (°C),Sample RH (%),Span deviation,Mass concentration (μg/m³),Mass concentration (μg/m³),Mass concentration (μg/m³)
DateTimeUTC,F1_M11,P_M11,Q1_M11,Q2_M11,T1_M11,T2_M11,T3_M11,T4_M11,T5_M11,U1_M11,ZSPAN_M11,X0_M11,X2_M11,X1_M11
2022-11-28 00:00:00,,0816.3,5.01,0.00,23.2,21.5,00.0,32.3,24.9,07.0,0000.0,0002.42,0000.79,0000.64
2022-11-28 00:01:00,,0816.4,5.01,0.00,23.2,21.5,00.0,32.3,24.9,06.8,0000.0,0002.42,0000.80,0000.65
2022-11-28 00:02:00,,0816.4,4.99,0.00,23.2,21.5,00.0,32.3,24.9,06.7,0000.0,0002.42,0000.81,0000.66
2022-11-28 00:03:00,,0816.2,4.99,0.00,23.2,21.5,00.0,32.3,24.9,06.8,0000.0,0002.41,0000.81,0000.66
2022-11-28 00:04:00,,0816.1,5.01,0.00,23.2,21.4,00.0,32.3,24.9,07.0,0000.0,0002.39,0000.81,0000.66
2022-11-28 00:05:00,,0816.3,4.99,0.00,23.1,21.4,00.0,32.2,24.9,07.0,0000.0,0002.45,0000.83,0000.67
2022-11-28 00:06:00,,0816.4,5.00,0.00,23.1,21.4,00.0,32.2,24.9,06.7,0000.0,0001.99,0000.83,0000.68
2022-11-28 00:07:00,,0816.4,5.00,0.00,23.1,21.4,00.0,32.2,24.8,06.9,0000.0,0001.20,0000.82,0000.68
2022-11-28 00:08:00,,0816.3,5.01,0.00,23.1,21.3,00.0,32.2,24.8,06.9,0000.0,0001.15,0000.81,0000.68
2022-11-28 00:09:00,,0816.3,4.99,0.00,23.0,21.3,00.0,32.2,24.8,07.1,0000.0,0001.10,0000.79,0000.68
2022-11-28 00:10:00,,0816.2,5.01,0.00,23.0,21.2,00.0,32.1,24.7,07.2,0000.0,0001.22,0000.79,0000.69
2022-11-28 00:11:00,,0816.1,5.02,0.00,23.0,21.2,00.0,32.1,24.7,07.3,0000.0,0001.27,0000.79,0000.69
2022-11-28 00:12:00,,0816.1,5.00,0.00,23.0,21.2,00.0,32.1,24.7,07.2,0000.0,0001.35,0000.80,0000.69
2022-11-28 00:13:00,,0816.1,4.98,0.00,22.9,21.2,00.0,32.0,24.7,07.0,0000.0,0001.44,0000.83,0000.70
2022-11-28 00:14:00,,0816.2,5.00,0.00,22.9,21.1,00.0,32.0,24.5,07.1,0000.0,0001.51,0000.85,0000.70
2022-11-28 00:15:00,,0816.3,4.99,0.00,22.9,21.1,00.0,32.0,24.6,07.2,0000.0,0001.46,0000.84,0000.70
2022-11-28 00:16:00,,0816.2,5.00,0.00,22.8,21.1,00.0,32.0,24.5,07.3,0000.0,0001.35,0000.82,0000.69
2022-11-28 00:17:00,,0816.2,5.00,0.00,22.8,21.1,00.0,32.0,24.4,07.4,0000.0,0001.36,0000.83,0000.70
2022-11-28 00:18:00,,0816.2,5.00,0.00,22.8,21.0,00.0,32.0,24.4,07.6,0000.0,0001.40,0000.84,0000.70
2022-11-28 00:19:00,,0816.1,5.00,0.00,22.8,21.1,00.0,32.0,24.5,07.6,0000.0,0001.40,0000.85,0000.71
2022-11-28 00:20:00,,0816.0,4.99,0.00,22.8,21.0,00.0,31.9,24.3,07.5,0000.0,0001.40,0000.85,0000.71
2022-11-28 00:21:00,,0816.0,5.01,0.00,22.7,21.0,00.0,31.9,24.2,07.7,0000.0,0001.31,0000.85,0000.71
2022-11-28 00:22:00,,0816.0,4.98,0.00,22.7,21.0,00.0,31.9,24.2,07.8,0000.0,0001.63,0000.89,0000.71
2022-11-28 00:23:00,,0816.0,5.00,0.00,22.7,21.0,00.0,31.9,24.3,07.4,0000.0,0002.32,0000.91,0000.71
2022-11-28 00:24:00,,0816.0,5.00,0.00,22.7,21.0,00.0,31.9,24.3,07.3,0000.0,0002.26,0000.89,0000.71
2022-11-28 00:25:00,,0816.0,5.02,0.00,22.7,21.0,00.0,31.8,24.4,07.3,0000.0,0002.25,0000.90,0000.72
2022-11-28 00:26:00,,0816.1,4.99,0.00,22.7,21.0,00.0,31.8,24.4,07.4,0000.0,0002.42,0000.94,0000.72
2022-11-28 00:27:00,,0816.0,5.01,0.00,22.7,21.0,00.0,31.8,24.4,07.8,0000.0,0002.64,0000.95,0000.73
2022-11-28 00:28:00,,0816.0,4.98,0.00,22.6,21.0,00.0,31.8,24.4,07.8,0000.0,0003.71,0000.96,0000.75
2022-11-28 00:29:00,,0816.0,5.00,0.00,22.6,20.9,00.0,31.8,24.2,07.9,0000.0,0003.68,0000.96,0000.76
2022-11-28 00:30:00,,0815.8,5.01,0.00,22.6,20.9,00.0,31.7,24.2,07.8,0000.0,0003.70,0000.98,0000.77
2022-11-28 00:31:00,,0815.9,5.01,0.00,22.6,20.9,00.0,31.7,24.3,08.0,0000.0,0003.75,0001.00,0000.79
2022-11-28 00:32:00,,0815.8,4.98,0.00,22.6,20.9,00.0,31.7,24.3,08.0,0000.0,0003.75,0001.01,0000.79
2022-11-28 00:33:00,,0815.8,5.01,0.00,22.6,20.8,00.0,31.7,24.3,08.0,0000.0,0003.38,0000.98,0000.81
2022-11-28 00:34:00,,0815.6,5.01,0.00,22.5,20.8,00.0,31.7,24.2,08.1,0000.0,0002.70,0001.00,0000.83
2022-11-28 00:35:00,,0815.7,4.99,0.00,22.5,20.8,00.0,31.6,24.3,08.2,0000.0,0002.79,0001.02,0000.84
2022-11-28 00:36:00,,0815.8,4.99,0.00,22.5,20.7,00.0,31.6,24.3,08.1,0000.0,0002.78,0001.01,0000.86
2022-11-28 00:37:00,,0815.6,5.02,0.00,22.5,20.7,00.0,31.6,24.1,08.2,0000.0,0002.74,0001.01,0000.87
2022-11-28 00:38:00,,0815.6,5.00,0.00,22.4,20.6,00.0,31.5,24.1,08.3,0000.0,0002.55,0001.04,0000.88
2022-11-28 00:39:00,,0815.8,5.00,0.00,22.4,20.6,00.0,31.5,24.0,08.2,0000.0,0001.52,0001.04,0000.87
2022-11-28 00:40:00,,0815.8,5.01,0.00,22.4,20.5,00.0,31.5,24.0,08.4,0000.0,0001.50,0001.03,0000.86
2022-11-28 00:41:00,,0815.9,4.99,0.00,22.3,20.5,00.0,31.4,24.0,08.4,0000.0,0001.53,0001.05,0000.86
2022-11-28 00:42:00,,0815.7,5.00,0.00,22.3,20.5,00.0,31.4,23.9,08.3,0000.0,0001.53,0001.05,0000.85
2022-11-28 00:43:00,,0815.8,5.00,0.00,22.3,20.5,00.0,31.4,23.9,08.3,0000.0,0001.52,0001.05,0000.86
2022-11-28 00:44:00,,0815.8,5.01,0.00,22.2,20.4,00.0,31.4,23.9,08.1,0000.0,0001.61,0001.05,0000.85
2022-11-28 00:45:00,,0815.9,5.00,0.00,22.2,20.4,00.0,31.4,23.8,08.2,0000.0,0001.57,0001.02,0000.84
2022-11-28 00:46:00,,0815.9,4.99,0.00,22.2,20.4,00.0,31.3,23.8,08.0,0000.0,0001.46,0000.99,0000.83
2022-11-28 00:47:00,,0816.1,4.99,0.00,22.2,20.4,00.0,31.3,23.8,08.1,0000.0,0001.43,0000.98,0000.82
2022-11-28 00:48:00,,0815.9,5.00,0.00,22.2,20.5,00.0,31.3,23.9,08.1,0000.0,0001.36,0000.97,0000.81
2022-11-28 00:49:00,,0815.9,5.00,0.00,22.2,20.5,00.0,31.3,23.9,08.0,0000.0,0001.39,0000.97,0000.80
2022-11-28 00:50:00,,0815.9,5.00,0.00,22.2,20.5,00.0,31.3,23.8,08.2,0000.0,0001.37,0000.95,0000.80
2022-11-28 00:51:00,,0815.9,4.99,0.00,22.2,20.5,00.0,31.3,23.8,08.3,0000.0,0001.44,0000.97,0000.79
2022-11-28 00:52:00,,0815.9,5.00,0.00,22.1,20.5,00.0,31.3,23.7,08.3,0000.0,0001.41,0000.94,0000.79
2022-11-28 00:53:00,,0816.0,5.00,0.00,22.1,20.4,00.0,31.3,23.7,08.5,0000.0,0001.37,0000.93,0000.78
2022-11-28 00:54:00,,0815.9,5.00,0.00,22.1,20.4,00.0,31.3,23.8,07.9,0000.0,0001.38,0000.93,0000.77
2022-11-28 00:55:00,,0815.9,5.01,0.00,22.1,20.4,00.0,31.2,23.8,07.4,0000.0,0001.29,0000.92,0000.76
2022-11-28 00:56:00,,0815.8,5.01,0.00,22.1,20.4,00.0,31.2,23.9,07.5,0000.0,0001.23,0000.90,0000.75
2022-11-28 00:57:00,,0815.7,4.99,0.00,22.1,20.4,00.0,31.2,23.8,07.8,0000.0,0001.21,0000.89,0000.74
2022-11-28 00:58:00,,0815.6,5.00,0.00,22.1,20.4,00.0,31.2,23.7,07.6,0000.0,0002.08,0000.92,0000.74
2022-11-28 00:59:00,,0815.8,5.02,0.00,22.1,20.4,00.0,31.2,23.8,07.8,0000.0,0002.44,0000.93,0000.73
